Year,Month,Day,Hour,Minute,Value (Times are PST for temperature in C)
2015,04,20,00,00,11.50
2015,04,20,00,01,11.40
2015,04,20,00,02,11.40
2015,04,20,00,03,11.40
2015,04,20,00,04,11.40
2015,04,20,00,05,11.40
2015,04,20,00,06,11.40
2015,04,20,00,07,11.40
2015,04,20,00,08,11.40
2015,04,20,00,09,11.40
2015,04,20,00,10,11.40
2015,04,20,00,11,11.40
2015,04,20,00,12,11.40
2015,04,20,00,13,11.40
2015,04,20,00,14,11.40
2015,04,20,00,15,11.40
2015,04,20,00,16,11.40
2015,04,20,00,17,11.40
2015,04,20,00,18,11.40
2015,04,20,00,19,11.40
2015,04,20,00,20,11.40
2015,04,20,00,21,11.40
2015,04,20,00,22,11.40
2015,04,20,00,23,11.40
2015,04,20,00,24,11.40
2015,04,20,00,25,11.30
2015,04,20,00,26,11.30
2015,04,20,00,27,11.30
2015,04,20,00,28,11.30
2015,04,20,00,29,11.30
2015,04,20,00,30,11.30
2015,04,20,00,31,11.30
2015,04,20,00,32,11.30
2015,04,20,00,33,11.20
2015,04,20,00,34,11.20
2015,04,20,00,35,11.20
2015,04,20,00,36,11.20
2015,04,20,00,37,11.20
2015,04,20,00,38,11.10
2015,04,20,00,39,11.10
2015,04,20,00,40,11.10
2015,04,20,00,41,11.00
2015,04,20,00,42,11.00
2015,04,20,00,43,11.00
2015,04,20,00,44,10.90
2015,04,20,00,45,10.90
2015,04,20,00,46,10.90
2015,04,20,00,47,10.90
2015,04,20,00,48,10.80
2015,04,20,00,49,10.80
2015,04,20,00,50,10.80
2015,04,20,00,51,10.80
2015,04,20,00,52,10.80
2015,04,20,00,53,10.70
2015,04,20,00,54,10.70
2015,04,20,00,55,10.70
2015,04,20,00,56,10.60
2015,04,20,00,57,10.60
2015,04,20,00,58,10.60
2015,04,20,00,59,10.50
2015,04,20,01,00,10.50
2015,04,20,01,01,10.50
2015,04,20,01,02,10.40
2015,04,20,01,03,10.40
2015,04,20,01,04,10.40
2015,04,20,01,05,10.40
2015,04,20,01,06,10.30
2015,04,20,01,07,10.30
2015,04,20,01,08,10.30
2015,04,20,01,09,10.30
2015,04,20,01,10,10.30
2015,04,20,01,11,10.30
2015,04,20,01,12,10.20
2015,04,20,01,13,10.20
2015,04,20,01,14,10.20
2015,04,20,01,15,10.20
2015,04,20,01,16,10.20
2015,04,20,01,17,10.10
2015,04,20,01,18,10.10
2015,04,20,01,19,10.10
2015,04,20,01,20,10.10
2015,04,20,01,21,10.00
2015,04,20,01,22,10.00
2015,04,20,01,23,10.00
2015,04,20,01,24,10.00
2015,04,20,01,25,10.00
2015,04,20,01,26,10.00
2015,04,20,01,27,10.00
2015,04,20,01,28,9.90
2015,04,20,01,29,9.90
2015,04,20,01,30,9.90
2015,04,20,01,31,9.90
2015,04,20,01,32,9.90
2015,04,20,01,33,9.80
2015,04,20,01,34,9.80
2015,04,20,01,35,9.80
2015,04,20,01,36,9.80
2015,04,20,01,37,9.80
2015,04,20,01,38,9.80
2015,04,20,01,39,9.80
2015,04,20,01,40,9.80
2015,04,20,01,41,9.90
2015,04,20,01,42,9.90
2015,04,20,01,43,9.90
2015,04,20,01,44,9.90
2015,04,20,01,45,9.90
2015,04,20,01,46,9.90
2015,04,20,01,47,9.90
2015,04,20,01,48,9.90
2015,04,20,01,49,9.90
2015,04,20,01,50,9.90
2015,04,20,01,51,9.90
2015,04,20,01,52,9.90
2015,04,20,01,53,9.90
2015,04,20,01,54,9.90
2015,04,20,01,55,9.80
2015,04,20,01,56,9.80
2015,04,20,01,57,9.80
2015,04,20,01,58,9.80
2015,04,20,01,59,9.80
2015,04,20,02,00,9.70
2015,04,20,02,01,9.70
2015,04,20,02,02,9.70
2015,04,20,02,03,9.70
2015,04,20,02,04,9.70
2015,04,20,02,05,9.70
2015,04,20,02,06,9.60
2015,04,20,02,07,9.60
2015,04,20,02,08,9.60
2015,04,20,02,09,9.60
2015,04,20,02,10,9.60
2015,04,20,02,11,9.60
2015,04,20,02,12,9.60
2015,04,20,02,13,9.60
2015,04,20,02,14,9.60
2015,04,20,02,15,9.60
2015,04,20,02,16,9.60
2015,04,20,02,17,9.60
2015,04,20,02,18,9.60
2015,04,20,02,19,9.60
2015,04,20,02,20,9.60
2015,04,20,02,21,9.60
2015,04,20,02,22,9.60
2015,04,20,02,23,9.60
2015,04,20,02,24,9.60
2015,04,20,02,25,9.50
2015,04,20,02,26,9.60
2015,04,20,02,27,9.60
2015,04,20,02,28,9.50
2015,04,20,02,29,9.50
2015,04,20,02,30,9.60
2015,04,20,02,31,9.50
2015,04,20,02,32,9.50
2015,04,20,02,33,9.50
2015,04,20,02,34,9.50
2015,04,20,02,35,9.50
2015,04,20,02,36,9.50
2015,04,20,02,37,9.50
2015,04,20,02,38,9.50
2015,04,20,02,39,9.50
2015,04,20,02,40,9.50
2015,04,20,02,41,9.40
2015,04,20,02,42,9.40
2015,04,20,02,43,9.40
2015,04,20,02,44,9.40
2015,04,20,02,45,9.40
2015,04,20,02,46,9.40
2015,04,20,02,47,9.30
2015,04,20,02,48,9.30
2015,04,20,02,49,9.30
2015,04,20,02,50,9.30
2015,04,20,02,51,9.30
2015,04,20,02,52,9.30
2015,04,20,02,53,9.20
2015,04,20,02,54,9.20
2015,04,20,02,55,9.20
2015,04,20,02,56,9.20
2015,04,20,02,57,9.20
2015,04,20,02,58,9.20
2015,04,20,02,59,9.10
2015,04,20,03,00,9.10
2015,04,20,03,01,9.10
2015,04,20,03,02,9.10
2015,04,20,03,03,9.10
2015,04,20,03,04,9.10
2015,04,20,03,05,9.10
2015,04,20,03,06,9.10
2015,04,20,03,07,9.00
2015,04,20,03,08,9.00
2015,04,20,03,09,9.00
2015,04,20,03,10,9.00
2015,04,20,03,11,9.00
2015,04,20,03,12,9.00
2015,04,20,03,13,9.00
2015,04,20,03,14,9.00
2015,04,20,03,15,8.90
2015,04,20,03,16,8.90
2015,04,20,03,17,8.90
2015,04,20,03,18,8.90
2015,04,20,03,19,8.90
2015,04,20,03,20,8.80
2015,04,20,03,21,8.80
2015,04,20,03,22,8.80
2015,04,20,03,23,8.80
2015,04,20,03,24,8.80
2015,04,20,03,25,8.80
2015,04,20,03,26,8.80
2015,04,20,03,27,8.80
2015,04,20,03,28,8.80
2015,04,20,03,29,8.80
2015,04,20,03,30,8.80
2015,04,20,03,31,8.90
2015,04,20,03,32,8.90
2015,04,20,03,33,8.90
2015,04,20,03,34,8.90
2015,04,20,03,35,8.90
2015,04,20,03,36,8.90
2015,04,20,03,37,8.90
2015,04,20,03,38,8.90
2015,04,20,03,39,8.90
2015,04,20,03,40,8.90
2015,04,20,03,41,8.90
2015,04,20,03,42,8.90
2015,04,20,03,43,8.90
2015,04,20,03,44,8.90
2015,04,20,03,45,8.90
2015,04,20,03,46,8.90
2015,04,20,03,47,8.80
2015,04,20,03,48,8.80
2015,04,20,03,49,8.80
2015,04,20,03,50,8.80
2015,04,20,03,51,8.80
2015,04,20,03,52,8.80
2015,04,20,03,53,8.80
2015,04,20,03,54,8.80
2015,04,20,03,55,8.90
2015,04,20,03,56,8.90
2015,04,20,03,57,8.90
2015,04,20,03,58,8.90
2015,04,20,03,59,8.80
2015,04,20,04,00,8.80
2015,04,20,04,01,8.80
2015,04,20,04,02,8.80
2015,04,20,04,03,8.80
2015,04,20,04,04,8.80
2015,04,20,04,05,8.80
2015,04,20,04,06,8.80
2015,04,20,04,07,8.80
2015,04,20,04,08,8.80
2015,04,20,04,09,8.80
2015,04,20,04,10,8.80
2015,04,20,04,11,8.80
2015,04,20,04,12,8.80
2015,04,20,04,13,8.80
2015,04,20,04,14,8.80
2015,04,20,04,15,8.80
2015,04,20,04,16,8.80
2015,04,20,04,17,8.70
2015,04,20,04,18,8.70
2015,04,20,04,19,8.70
2015,04,20,04,20,8.70
2015,04,20,04,21,8.70
2015,04,20,04,22,8.60
2015,04,20,04,23,8.60
2015,04,20,04,24,8.60
2015,04,20,04,25,8.60
2015,04,20,04,26,8.60
2015,04,20,04,27,8.60
2015,04,20,04,28,8.60
2015,04,20,04,29,8.60
2015,04,20,04,30,8.60
2015,04,20,04,31,8.60
2015,04,20,04,32,8.60
2015,04,20,04,33,8.60
2015,04,20,04,34,8.60
2015,04,20,04,35,8.60
2015,04,20,04,36,8.60
2015,04,20,04,37,8.50
2015,04,20,04,38,8.50
2015,04,20,04,39,8.50
2015,04,20,04,40,8.50
2015,04,20,04,41,8.50
2015,04,20,04,42,8.50
2015,04,20,04,43,8.40
2015,04,20,04,44,8.40
2015,04,20,04,45,8.40
2015,04,20,04,46,8.40
2015,04,20,04,47,8.40
2015,04,20,04,48,8.30
2015,04,20,04,49,8.30
2015,04,20,04,50,8.20
2015,04,20,04,51,8.20
2015,04,20,04,52,8.20
2015,04,20,04,53,8.20
2015,04,20,04,54,8.10
2015,04,20,04,55,8.10
2015,04,20,04,56,8.00
2015,04,20,04,57,8.00
2015,04,20,04,58,8.00
2015,04,20,04,59,8.00
2015,04,20,05,00,7.90
2015,04,20,05,01,7.90
2015,04,20,05,02,7.90
2015,04,20,05,03,7.90
2015,04,20,05,04,7.80
2015,04,20,05,05,7.80
2015,04,20,05,06,7.80
2015,04,20,05,07,7.80
2015,04,20,05,08,7.80
2015,04,20,05,09,7.80
2015,04,20,05,10,7.80
2015,04,20,05,11,7.90
2015,04,20,05,12,7.90
2015,04,20,05,13,7.90
2015,04,20,05,14,7.90
2015,04,20,05,15,7.90
2015,04,20,05,16,7.90
2015,04,20,05,17,7.80
2015,04,20,05,18,7.80
2015,04,20,05,19,7.80
2015,04,20,05,20,7.70
2015,04,20,05,21,7.70
2015,04,20,05,22,7.60
2015,04,20,05,23,7.60
2015,04,20,05,24,7.50
2015,04,20,05,25,7.50
2015,04,20,05,26,7.40
2015,04,20,05,27,7.40
2015,04,20,05,28,7.30
2015,04,20,05,29,7.30
2015,04,20,05,30,7.30
2015,04,20,05,31,7.30
2015,04,20,05,32,7.30
2015,04,20,05,33,7.20
2015,04,20,05,34,7.20
2015,04,20,05,35,7.20
2015,04,20,05,36,7.10
2015,04,20,05,37,7.10
2015,04,20,05,38,7.10
2015,04,20,05,39,7.10
2015,04,20,05,40,7.10
2015,04,20,05,41,7.10
2015,04,20,05,42,7.10
2015,04,20,05,43,7.10
2015,04,20,05,44,7.10
2015,04,20,05,45,7.10
2015,04,20,05,46,7.10
2015,04,20,05,47,7.00
2015,04,20,05,48,7.00
2015,04,20,05,49,7.00
2015,04,20,05,50,7.00
2015,04,20,05,51,7.00
2015,04,20,05,52,7.00
2015,04,20,05,53,7.00
2015,04,20,05,54,7.00
2015,04,20,05,55,7.10
2015,04,20,05,56,7.10
2015,04,20,05,57,7.10
2015,04,20,05,58,7.10
2015,04,20,05,59,7.10
2015,04,20,06,00,7.10
2015,04,20,06,01,7.10
2015,04,20,06,02,7.10
2015,04,20,06,03,7.10
2015,04,20,06,04,7.10
2015,04,20,06,05,7.10
2015,04,20,06,06,7.10
2015,04,20,06,07,7.10
2015,04,20,06,08,7.10
2015,04,20,06,09,7.10
2015,04,20,06,10,7.10
2015,04,20,06,11,7.10
2015,04,20,06,12,7.10
2015,04,20,06,13,7.10
2015,04,20,06,14,7.10
2015,04,20,06,15,7.10
2015,04,20,06,16,7.10
2015,04,20,06,17,7.10
2015,04,20,06,18,7.10
2015,04,20,06,19,7.10
2015,04,20,06,20,7.10
2015,04,20,06,21,7.10
2015,04,20,06,22,7.10
2015,04,20,06,23,7.10
2015,04,20,06,24,7.10
2015,04,20,06,25,7.10
2015,04,20,06,26,7.10
2015,04,20,06,27,7.10
2015,04,20,06,28,7.00
2015,04,20,06,29,7.00
2015,04,20,06,30,7.00
2015,04,20,06,31,7.00
2015,04,20,06,32,7.00
2015,04,20,06,33,7.00
2015,04,20,06,34,7.00
2015,04,20,06,35,7.00
2015,04,20,06,36,7.00
2015,04,20,06,37,7.10
2015,04,20,06,38,7.10
2015,04,20,06,39,7.10
2015,04,20,06,40,7.10
2015,04,20,06,41,7.10
2015,04,20,06,42,7.10
2015,04,20,06,43,7.10
2015,04,20,06,44,7.10
2015,04,20,06,45,7.10
2015,04,20,06,46,7.20
2015,04,20,06,47,7.20
2015,04,20,06,48,7.20
2015,04,20,06,49,7.30
2015,04,20,06,50,7.30
2015,04,20,06,51,7.30
2015,04,20,06,52,7.30
2015,04,20,06,53,7.30
2015,04,20,06,54,7.40
2015,04,20,06,55,7.40
2015,04,20,06,56,7.40
2015,04,20,06,57,7.40
2015,04,20,06,58,7.30
2015,04,20,06,59,7.30
2015,04,20,07,00,7.30
2015,04,20,07,01,7.30
2015,04,20,07,02,7.30
2015,04,20,07,03,7.30
2015,04,20,07,04,7.30
2015,04,20,07,05,7.40
2015,04,20,07,06,7.40
2015,04,20,07,07,7.40
2015,04,20,07,08,7.40
2015,04,20,07,09,7.40
2015,04,20,07,10,7.40
2015,04,20,07,11,7.50
2015,04,20,07,12,7.50
2015,04,20,07,13,7.50
2015,04,20,07,14,7.50
2015,04,20,07,15,7.50
2015,04,20,07,16,7.50
2015,04,20,07,17,7.50
2015,04,20,07,18,7.50
2015,04,20,07,19,7.50
2015,04,20,07,20,7.60
2015,04,20,07,21,7.70
2015,04,20,07,22,7.70
2015,04,20,07,23,7.80
2015,04,20,07,24,7.90
2015,04,20,07,25,8.00
2015,04,20,07,26,8.10
2015,04,20,07,27,8.10
2015,04,20,07,28,8.20
2015,04,20,07,29,8.20
2015,04,20,07,30,8.20
2015,04,20,07,31,8.30
2015,04,20,07,32,8.30
2015,04,20,07,33,8.30
2015,04,20,07,34,8.30
2015,04,20,07,35,8.30
2015,04,20,07,36,8.30
2015,04,20,07,37,8.30
2015,04,20,07,38,8.30
2015,04,20,07,39,8.40
2015,04,20,07,40,8.40
2015,04,20,07,41,8.40
2015,04,20,07,42,8.40
2015,04,20,07,43,8.40
2015,04,20,07,44,8.50
2015,04,20,07,45,8.50
2015,04,20,07,46,8.50
2015,04,20,07,47,8.60
2015,04,20,07,48,8.70
2015,04,20,07,49,8.80
2015,04,20,07,50,8.80
2015,04,20,07,51,8.90
2015,04,20,07,52,9.00
2015,04,20,07,53,9.10
2015,04,20,07,54,9.30
2015,04,20,07,55,9.40
2015,04,20,07,56,9.50
2015,04,20,07,57,9.60
2015,04,20,07,58,9.60
2015,04,20,07,59,9.70
2015,04,20,08,00,9.80
2015,04,20,08,01,9.80
2015,04,20,08,02,9.90
2015,04,20,08,03,10.00
2015,04,20,08,04,10.10
2015,04,20,08,05,10.20
2015,04,20,08,06,10.30
2015,04,20,08,07,10.30
2015,04,20,08,08,10.40
2015,04,20,08,09,10.50
2015,04,20,08,10,10.70
2015,04,20,08,11,10.80
2015,04,20,08,12,10.90
2015,04,20,08,13,11.00
2015,04,20,08,14,11.00
2015,04,20,08,15,11.10
2015,04,20,08,16,11.20
2015,04,20,08,17,11.30
2015,04,20,08,18,11.40
2015,04,20,08,19,11.60
2015,04,20,08,20,11.70
2015,04,20,08,21,11.70
2015,04,20,08,22,11.80
2015,04,20,08,23,11.80
2015,04,20,08,24,11.90
2015,04,20,08,25,12.00
2015,04,20,08,26,12.00
2015,04,20,08,27,12.10
2015,04,20,08,28,12.10
2015,04,20,08,29,12.10
2015,04,20,08,30,12.10
2015,04,20,08,31,12.10
2015,04,20,08,32,12.20
2015,04,20,08,33,12.20
2015,04,20,08,34,12.20
2015,04,20,08,35,12.30
2015,04,20,08,36,12.40
2015,04,20,08,37,12.50
2015,04,20,08,38,12.50
2015,04,20,08,39,12.60
2015,04,20,08,40,12.60
2015,04,20,08,41,12.70
2015,04,20,08,42,12.80
2015,04,20,08,43,12.80
2015,04,20,08,44,12.80
2015,04,20,08,45,12.90
2015,04,20,08,46,12.90
2015,04,20,08,47,12.90
2015,04,20,08,48,13.00
2015,04,20,08,49,13.00
2015,04,20,08,50,13.00
2015,04,20,08,51,13.00
2015,04,20,08,52,13.00
2015,04,20,08,53,13.00
2015,04,20,08,54,13.10
2015,04,20,08,55,13.10
2015,04,20,08,56,13.20
2015,04,20,08,57,13.30
2015,04,20,08,58,13.30
2015,04,20,08,59,13.40
2015,04,20,09,00,13.50
2015,04,20,09,01,13.50
2015,04,20,09,02,13.60
2015,04,20,09,03,13.70
2015,04,20,09,04,13.80
2015,04,20,09,05,13.90
2015,04,20,09,06,14.00
2015,04,20,09,07,14.00
2015,04,20,09,08,14.10
2015,04,20,09,09,14.20
2015,04,20,09,10,14.20
2015,04,20,09,11,14.30
2015,04,20,09,12,14.30
2015,04,20,09,13,14.30
2015,04,20,09,14,14.30
2015,04,20,09,15,14.30
2015,04,20,09,16,14.40
2015,04,20,09,17,14.40
2015,04,20,09,18,14.40
2015,04,20,09,19,14.50
2015,04,20,09,20,14.50
2015,04,20,09,21,14.60
2015,04,20,09,22,14.70
2015,04,20,09,23,14.60
2015,04,20,09,24,14.60
2015,04,20,09,25,14.60
2015,04,20,09,26,14.60
2015,04,20,09,27,14.70
2015,04,20,09,28,14.70
2015,04,20,09,29,14.80
2015,04,20,09,30,14.90
2015,04,20,09,31,15.00
2015,04,20,09,32,15.10
2015,04,20,09,33,15.10
2015,04,20,09,34,15.20
2015,04,20,09,35,15.20
2015,04,20,09,36,15.10
2015,04,20,09,37,15.10
2015,04,20,09,38,15.00
2015,04,20,09,39,15.00
2015,04,20,09,40,15.00
2015,04,20,09,41,15.00
2015,04,20,09,42,15.00
2015,04,20,09,43,15.00
2015,04,20,09,44,14.90
2015,04,20,09,45,14.90
2015,04,20,09,46,14.80
2015,04,20,09,47,14.80
2015,04,20,09,48,14.80
2015,04,20,09,49,14.70
2015,04,20,09,50,14.60
2015,04,20,09,51,14.50
2015,04,20,09,52,14.40
2015,04,20,09,53,14.40
2015,04,20,09,54,14.30
2015,04,20,09,55,14.30
2015,04,20,09,56,14.30
2015,04,20,09,57,14.30
2015,04,20,09,58,14.30
2015,04,20,09,59,14.20
2015,04,20,10,00,14.20
2015,04,20,10,01,14.10
2015,04,20,10,02,14.00
2015,04,20,10,03,14.00
2015,04,20,10,04,14.00
2015,04,20,10,05,14.10
2015,04,20,10,06,14.10
2015,04,20,10,07,14.20
2015,04,20,10,08,14.20
2015,04,20,10,09,14.20
2015,04,20,10,10,14.20
2015,04,20,10,11,14.20
2015,04,20,10,12,14.20
2015,04,20,10,13,14.20
2015,04,20,10,14,14.20
2015,04,20,10,15,14.30
2015,04,20,10,16,14.30
2015,04,20,10,17,14.40
2015,04,20,10,18,14.50
2015,04,20,10,19,14.60
2015,04,20,10,20,14.80
2015,04,20,10,21,14.80
2015,04,20,10,22,14.90
2015,04,20,10,23,14.90
2015,04,20,10,24,14.90
2015,04,20,10,25,14.90
2015,04,20,10,26,15.00
2015,04,20,10,27,15.10
2015,04,20,10,28,15.20
2015,04,20,10,29,15.30
2015,04,20,10,30,15.40
2015,04,20,10,31,15.40
2015,04,20,10,32,15.50
2015,04,20,10,33,15.60
2015,04,20,10,34,15.60
2015,04,20,10,35,15.60
2015,04,20,10,36,15.60
2015,04,20,10,37,15.60
2015,04,20,10,38,15.50
2015,04,20,10,39,15.50
2015,04,20,10,40,15.40
2015,04,20,10,41,15.40
2015,04,20,10,42,15.30
2015,04,20,10,43,15.30
2015,04,20,10,44,15.20
2015,04,20,10,45,15.20
2015,04,20,10,46,15.20
2015,04,20,10,47,15.20
2015,04,20,10,48,15.20
2015,04,20,10,49,15.20
2015,04,20,10,50,15.20
2015,04,20,10,51,15.20
2015,04,20,10,52,15.20
2015,04,20,10,53,15.20
2015,04,20,10,54,15.20
2015,04,20,10,55,15.20
2015,04,20,10,56,15.30
2015,04,20,10,57,15.30
2015,04,20,10,58,15.40
2015,04,20,10,59,15.40
2015,04,20,11,00,15.40
2015,04,20,11,01,15.50
2015,04,20,11,02,15.50
2015,04,20,11,03,15.50
2015,04,20,11,04,15.50
2015,04,20,11,05,15.50
2015,04,20,11,06,15.50
2015,04,20,11,07,15.50
2015,04,20,11,08,15.60
2015,04,20,11,09,15.70
2015,04,20,11,10,15.70
2015,04,20,11,11,15.80
2015,04,20,11,12,15.80
2015,04,20,11,13,15.90
2015,04,20,11,14,16.00
2015,04,20,11,15,16.00
2015,04,20,11,16,16.10
2015,04,20,11,17,16.10
2015,04,20,11,18,16.20
2015,04,20,11,19,16.20
2015,04,20,11,20,16.20
2015,04,20,11,21,16.20
2015,04,20,11,22,16.20
2015,04,20,11,23,16.20
2015,04,20,11,24,16.10
2015,04,20,11,25,16.00
2015,04,20,11,26,16.00
2015,04,20,11,27,16.00
2015,04,20,11,28,16.00
2015,04,20,11,29,16.00
2015,04,20,11,30,16.00
2015,04,20,11,31,16.00
2015,04,20,11,32,16.10
2015,04,20,11,33,16.10
2015,04,20,11,34,16.10
2015,04,20,11,35,16.20
2015,04,20,11,36,16.20
2015,04,20,11,37,16.20
2015,04,20,11,38,16.30
2015,04,20,11,39,16.30
2015,04,20,11,40,16.40
2015,04,20,11,41,16.40
2015,04,20,11,42,16.50
2015,04,20,11,43,16.50
2015,04,20,11,44,16.50
2015,04,20,11,45,16.60
2015,04,20,11,46,16.70
2015,04,20,11,47,16.90
2015,04,20,11,48,17.00
2015,04,20,11,49,17.10
2015,04,20,11,50,17.20
2015,04,20,11,51,17.20
2015,04,20,11,52,17.30
2015,04,20,11,53,17.30
2015,04,20,11,54,17.20
2015,04,20,11,55,17.10
2015,04,20,11,56,17.00
2015,04,20,11,57,16.90
2015,04,20,11,58,16.80
2015,04,20,11,59,16.80
2015,04,20,12,00,16.70
2015,04,20,12,01,16.60
2015,04,20,12,02,16.60
2015,04,20,12,03,16.50
2015,04,20,12,04,16.40
2015,04,20,12,05,16.50
2015,04,20,12,06,16.50
2015,04,20,12,07,16.60
2015,04,20,12,08,16.60
2015,04,20,12,09,16.60
2015,04,20,12,10,16.60
2015,04,20,12,11,16.60
2015,04,20,12,12,16.70
2015,04,20,12,13,16.70
2015,04,20,12,14,16.70
2015,04,20,12,15,16.70
2015,04,20,12,16,16.70
2015,04,20,12,17,16.70
2015,04,20,12,18,16.70
2015,04,20,12,19,16.70
2015,04,20,12,20,16.70
2015,04,20,12,21,16.70
2015,04,20,12,22,16.70
2015,04,20,12,23,16.80
2015,04,20,12,24,16.80
2015,04,20,12,25,16.80
2015,04,20,12,26,16.80
2015,04,20,12,27,16.80
2015,04,20,12,28,16.80
2015,04,20,12,29,16.80
2015,04,20,12,30,16.80
2015,04,20,12,31,16.80
2015,04,20,12,32,16.90
2015,04,20,12,33,16.90
2015,04,20,12,34,17.00
2015,04,20,12,35,17.00
2015,04,20,12,36,17.10
2015,04,20,12,37,17.10
2015,04,20,12,38,17.10
2015,04,20,12,39,17.10
2015,04,20,12,40,17.10
2015,04,20,12,41,17.10
2015,04,20,12,42,17.20
2015,04,20,12,43,17.20
2015,04,20,12,44,17.20
2015,04,20,12,45,17.20
2015,04,20,12,46,17.30
2015,04,20,12,47,17.20
2015,04,20,12,48,17.20
2015,04,20,12,49,17.30
2015,04,20,12,50,17.30
2015,04,20,12,51,17.30
2015,04,20,12,52,17.30
2015,04,20,12,53,17.30
2015,04,20,12,54,17.40
2015,04,20,12,55,17.40
2015,04,20,12,56,17.40
2015,04,20,12,57,17.50
2015,04,20,12,58,17.50
2015,04,20,12,59,17.50
2015,04,20,13,00,17.50
2015,04,20,13,01,17.50
2015,04,20,13,02,17.50
2015,04,20,13,03,17.50
2015,04,20,13,04,17.60
2015,04,20,13,05,17.70
2015,04,20,13,06,17.80
2015,04,20,13,07,17.90
2015,04,20,13,08,17.90
2015,04,20,13,09,17.90
2015,04,20,13,10,17.80
2015,04,20,13,11,17.80
2015,04,20,13,12,17.70
2015,04,20,13,13,17.70
2015,04,20,13,14,17.70
2015,04,20,13,15,17.70
2015,04,20,13,16,17.70
2015,04,20,13,17,17.70
2015,04,20,13,18,17.70
2015,04,20,13,19,17.70
2015,04,20,13,20,17.80
2015,04,20,13,21,17.80
2015,04,20,13,22,17.80
2015,04,20,13,23,17.80
2015,04,20,13,24,17.90
2015,04,20,13,25,17.90
2015,04,20,13,26,18.00
2015,04,20,13,27,18.10
2015,04,20,13,28,18.10
2015,04,20,13,29,18.10
2015,04,20,13,30,18.10
2015,04,20,13,31,18.10
2015,04,20,13,32,18.10
2015,04,20,13,33,18.10
2015,04,20,13,34,18.10
2015,04,20,13,35,18.20
2015,04,20,13,36,18.20
2015,04,20,13,37,18.20
2015,04,20,13,38,18.20
2015,04,20,13,39,18.20
2015,04,20,13,40,18.20
2015,04,20,13,41,18.20
2015,04,20,13,42,18.20
2015,04,20,13,43,18.30
2015,04,20,13,44,18.30
2015,04,20,13,45,18.30
2015,04,20,13,46,18.30
2015,04,20,13,47,18.30
2015,04,20,13,48,18.40
2015,04,20,13,49,18.30
2015,04,20,13,50,18.40
2015,04,20,13,51,18.40
2015,04,20,13,52,18.30
2015,04,20,13,53,18.30
2015,04,20,13,54,18.30
2015,04,20,13,55,18.30
2015,04,20,13,56,18.30
2015,04,20,13,57,18.30
2015,04,20,13,58,18.30
2015,04,20,13,59,18.30
2015,04,20,14,00,18.40
2015,04,20,14,01,18.40
2015,04,20,14,02,18.50
2015,04,20,14,03,18.50
2015,04,20,14,04,18.70
2015,04,20,14,05,18.70
2015,04,20,14,06,18.80
2015,04,20,14,07,18.90
2015,04,20,14,08,18.90
2015,04,20,14,09,18.90
2015,04,20,14,10,18.90
2015,04,20,14,11,18.80
2015,04,20,14,12,18.80
2015,04,20,14,13,18.80
2015,04,20,14,14,18.80
2015,04,20,14,15,18.80
2015,04,20,14,16,18.80
2015,04,20,14,17,18.80
2015,04,20,14,18,18.80
2015,04,20,14,19,18.80
2015,04,20,14,20,18.70
2015,04,20,14,21,18.60
2015,04,20,14,22,18.50
2015,04,20,14,23,18.50
2015,04,20,14,24,18.50
2015,04,20,14,25,18.60
2015,04,20,14,26,18.60
2015,04,20,14,27,18.50
2015,04,20,14,28,18.50
2015,04,20,14,29,18.60
2015,04,20,14,30,18.60
2015,04,20,14,31,18.60
2015,04,20,14,32,18.60
2015,04,20,14,33,18.70
2015,04,20,14,34,18.70
2015,04,20,14,35,18.80
2015,04,20,14,36,18.80
2015,04,20,14,37,18.80
2015,04,20,14,38,18.90
2015,04,20,14,39,19.00
2015,04,20,14,40,19.10
2015,04,20,14,41,19.10
2015,04,20,14,42,19.10
2015,04,20,14,43,19.00
2015,04,20,14,44,18.90
2015,04,20,14,45,18.80
2015,04,20,14,46,18.80
2015,04,20,14,47,18.80
2015,04,20,14,48,18.80
2015,04,20,14,49,18.80
2015,04,20,14,50,18.80
2015,04,20,14,51,18.80
2015,04,20,14,52,18.90
2015,04,20,14,53,18.90
2015,04,20,14,54,19.00
2015,04,20,14,55,19.10
2015,04,20,14,56,19.20
2015,04,20,14,57,19.20
2015,04,20,14,58,19.20
2015,04,20,14,59,19.20
2015,04,20,15,00,19.20
2015,04,20,15,01,19.20
2015,04,20,15,02,19.20
2015,04,20,15,03,19.20
2015,04,20,15,04,19.20
2015,04,20,15,05,19.20
2015,04,20,15,06,19.20
2015,04,20,15,07,19.20
2015,04,20,15,08,19.20
2015,04,20,15,09,19.20
2015,04,20,15,10,19.20
2015,04,20,15,11,19.20
2015,04,20,15,12,19.20
2015,04,20,15,13,19.20
2015,04,20,15,14,19.10
2015,04,20,15,15,19.10
2015,04,20,15,16,19.10
2015,04,20,15,17,19.20
2015,04,20,15,18,19.20
2015,04,20,15,19,19.20
2015,04,20,15,20,19.20
2015,04,20,15,21,19.30
2015,04,20,15,22,19.30
2015,04,20,15,23,19.30
2015,04,20,15,24,19.40
2015,04,20,15,25,19.40
2015,04,20,15,26,19.50
2015,04,20,15,27,19.50
2015,04,20,15,28,19.50
2015,04,20,15,29,19.50
2015,04,20,15,30,19.50
2015,04,20,15,31,19.50
2015,04,20,15,32,19.50
2015,04,20,15,33,19.50
2015,04,20,15,34,19.40
2015,04,20,15,35,19.40
2015,04,20,15,36,19.30
2015,04,20,15,37,19.30
2015,04,20,15,38,19.40
2015,04,20,15,39,19.40
2015,04,20,15,40,19.40
2015,04,20,15,41,19.40
2015,04,20,15,42,19.40
2015,04,20,15,43,19.40
2015,04,20,15,44,19.40
2015,04,20,15,45,19.50
2015,04,20,15,46,19.50
2015,04,20,15,47,19.50
2015,04,20,15,48,19.50
2015,04,20,15,49,19.50
2015,04,20,15,50,19.60
2015,04,20,15,51,19.60
2015,04,20,15,52,19.60
2015,04,20,15,53,19.70
2015,04,20,15,54,19.70
2015,04,20,15,55,19.70
2015,04,20,15,56,19.70
2015,04,20,15,57,19.70
2015,04,20,15,58,19.70
2015,04,20,15,59,19.70
2015,04,20,16,00,19.70
2015,04,20,16,01,19.70
2015,04,20,16,02,19.70
2015,04,20,16,03,19.70
2015,04,20,16,04,19.70
2015,04,20,16,05,19.70
2015,04,20,16,06,19.70
2015,04,20,16,07,19.70
2015,04,20,16,08,19.80
2015,04,20,16,09,19.80
2015,04,20,16,10,19.80
2015,04,20,16,11,19.80
2015,04,20,16,12,19.90
2015,04,20,16,13,19.90
2015,04,20,16,14,19.90
2015,04,20,16,15,19.90
2015,04,20,16,16,19.90
2015,04,20,16,17,19.90
2015,04,20,16,18,19.90
2015,04,20,16,19,19.90
2015,04,20,16,20,19.90
2015,04,20,16,21,19.90
2015,04,20,16,22,19.80
2015,04,20,16,23,19.80
2015,04,20,16,24,19.80
2015,04,20,16,25,19.80
2015,04,20,16,26,19.80
2015,04,20,16,27,19.80
2015,04,20,16,28,19.90
2015,04,20,16,29,19.90
2015,04,20,16,30,19.90
2015,04,20,16,31,19.90
2015,04,20,16,32,20.00
2015,04,20,16,33,20.00
2015,04,20,16,34,20.00
2015,04,20,16,35,20.00
2015,04,20,16,36,20.10
2015,04,20,16,37,20.10
2015,04,20,16,38,20.10
2015,04,20,16,39,20.10
2015,04,20,16,40,20.10
2015,04,20,16,41,20.10
2015,04,20,16,42,20.10
2015,04,20,16,43,20.10
2015,04,20,16,44,20.10
2015,04,20,16,45,20.10
2015,04,20,16,46,20.10
2015,04,20,16,47,20.10
2015,04,20,16,48,20.10
2015,04,20,16,49,20.10
2015,04,20,16,50,20.10
2015,04,20,16,51,20.10
2015,04,20,16,52,20.10
2015,04,20,16,53,20.10
2015,04,20,16,54,20.10
2015,04,20,16,55,20.10
2015,04,20,16,56,20.10
2015,04,20,16,57,20.10
2015,04,20,16,58,20.00
2015,04,20,16,59,20.00
2015,04,20,17,00,20.00
2015,04,20,17,01,20.00
2015,04,20,17,02,19.90
2015,04,20,17,03,19.90
2015,04,20,17,04,19.90
2015,04,20,17,05,19.90
2015,04,20,17,06,19.90
2015,04,20,17,07,20.00
2015,04,20,17,08,20.00
2015,04,20,17,09,20.00
2015,04,20,17,10,20.00
2015,04,20,17,11,20.10
2015,04,20,17,12,20.10
2015,04,20,17,13,20.10
2015,04,20,17,14,20.10
2015,04,20,17,15,20.10
2015,04,20,17,16,20.10
2015,04,20,17,17,20.00
2015,04,20,17,18,20.00
2015,04,20,17,19,20.00
2015,04,20,17,20,20.00
2015,04,20,17,21,20.00
2015,04,20,17,22,20.00
2015,04,20,17,23,20.00
2015,04,20,17,24,20.00
2015,04,20,17,25,20.00
2015,04,20,17,26,20.10
2015,04,20,17,27,20.10
2015,04,20,17,28,20.10
2015,04,20,17,29,20.20
2015,04,20,17,30,20.20
2015,04,20,17,31,20.30
2015,04,20,17,32,20.30
2015,04,20,17,33,20.30
2015,04,20,17,34,20.30
2015,04,20,17,35,20.30
2015,04,20,17,36,20.40